Location: Arrakis Observatory
(44.1122°N, 95.7153°W)
Time: 11:06:17
(UTC-06:00)

Amateur Radio Satellites - All Passes

Search period start: 23 November 2014 10:36
Search period end: 24 November 2014 10:36
Location: Arrakis Observatory, 44.1122°N, 95.7153°W

Satellite Date Start Highest point End Downlink Frequencies (MHz)
Time Altitude Azimuth
CUBEBUG 2 23 Nov 10:36:03 10:40:16 87° 104° (ESE) 10:44:34 437.445
Oscar 11 23 Nov 10:40:11 10:44:24 51° 288° (WNW) 10:48:37 145.826/435.025
CINEMA 3 23 Nov 10:41:40 10:45:44 52° 287° (WNW) 10:49:52 145.822/145.860
UWE-3 23 Nov 10:42:42 10:46:55 89° 103° (ESE) 10:51:13 435.000/436.395/437.385
SEEDS 23 Nov 10:51:47 10:54:30 17° 296° (WNW) 10:57:14 437.485
POLYITAN 1 23 Nov 10:54:08 10:58:14 46° 261° (W) 11:02:21 437.675
QB50P2 23 Nov 10:57:28 11:01:31 42° 261° (W) 11:05:35 145.880/145.840
TIGRISAT 23 Nov 10:58:52 11:02:38 30° 264° (W) 11:06:25 435.000
DX 1 23 Nov 10:59:11 11:03:12 38° 291° (WNW) 11:07:12 434.975-435.025
ESTCUBE 1 23 Nov 11:03:17 11:07:20 31° 96° (E) 11:11:20 437.505/2401.250
SHINDAISAT 23 Nov 11:04:37 11:06:14 54° 122° (ESE) 11:07:52 437.305
DUCHIFAT 1 23 Nov 11:05:43 11:09:37 35° 263° (W) 11:13:33 145.980
UNISAT 6 23 Nov 11:11:18 11:14:41 23° 266° (W) 11:18:04 437.425
VELOX 1 23 Nov 11:15:18 11:19:45 79° 285° (WNW) 11:24:09 145.980
AAUSAT CUBESAT 2 23 Nov 11:15:30 11:17:23 13° 299° (WNW) 11:19:16 437.432
DOVE 4 23 Nov 11:22:22 11:24:27 14° 298° (WNW) 11:26:33 437.250
ZACube-1 23 Nov 11:24:55 11:28:48 37° 289° (WNW) 11:32:44 437.345
NANOSAT C BR1 23 Nov 11:25:19 11:28:41 22° 266° (W) 11:32:03 145.865
HUMSAT D 23 Nov 11:30:38 11:34:41 51° 287° (WNW) 11:38:44 437.325/437.525
DELFI C3 23 Nov 11:35:16 11:37:50 16° 296° (WNW) 11:40:24 145.870
QB50P1 23 Nov 11:35:18 11:38:14 18° 268° (W) 11:41:11 145.935-145.965
50 SAT 23 Nov 11:39:37 11:43:32 48° 288° (WNW) 11:47:26 437.505
AISAT 23 Nov 11:39:52 11:44:05 43° 290° (WNW) 11:48:15 437.250
ANTELSAT 23 Nov 11:42:01 11:43:23 11° 271° (W) 11:44:46 437.575/2403.000
Oscar 19 23 Nov 11:52:57 11:56:49 22° 62° (ENE) 12:00:41 437.125/150
HO-68 23 Nov 11:55:24 11:59:09 15° 311° (NW) 12:02:55 435.675
FUNcube-1 23 Nov 12:01:45 12:04:30 17° 296° (WNW) 12:07:16 145.935
BUGSAT 1 23 Nov 12:03:34 12:04:49 11° 271° (W) 12:06:04 437.445
TISAT 1 23 Nov 12:03:42 12:07:31 32° 97° (E) 12:11:17 437.305
CUBEBUG 1 23 Nov 12:03:53 12:08:14 65° 286° (WNW) 12:12:32 437.445
SPROUT 23 Nov 12:04:11 12:07:57 29° 96° (E) 12:11:42 437.525
SO-50 23 Nov 12:07:46 12:11:52 27° 42° (NE) 12:16:00 436.795
AUBIESAT-1 23 Nov 12:23:02 12:24:04 11° 92° (E) 12:25:07 437.475
M-CUBED/EXP-1 PRIME 23 Nov 12:25:09 12:27:18 13° 93° (E) 12:29:26 437.505
ITAMSAT 1 23 Nov 12:39:08 12:43:15 24° 63° (ENE) 12:47:22 435.822/435.867
ESTCUBE 1 23 Nov 12:40:14 12:44:08 29° 293° (WNW) 12:48:01 437.505/2401.250
YUBILEINY 23 Nov 12:41:54 12:48:55 26° 64° (ENE) 12:55:51 435.215
Gurwin Techsat 1B 23 Nov 12:54:38 12:58:23 20° 61° (ENE) 13:02:08 435.225
ITUPSAT 1 23 Nov 13:05:09 13:09:00 23° 94° (E) 13:12:48 437.325
CUSAT 1 23 Nov 13:08:45 13:11:08 25° 96° (E) 13:13:21 437.405
SWISSCUBE 23 Nov 13:16:56 13:21:16 33° 97° (E) 13:25:34 437.505
DANDE 23 Nov 13:21:31 13:24:10 31° 97° (E) 13:26:34 436.750
Oscar 19 23 Nov 13:30:50 13:35:48 51° 260° (W) 13:40:48 437.125/150
AO-7 23 Nov 13:38:51 13:44:40 22° 48° (NE) 13:50:29 29.400- 29.500
TISAT 1 23 Nov 13:39:50 13:43:13 24° 294° (WNW) 13:46:34 437.305
SPROUT 23 Nov 13:40:22 13:43:58 27° 293° (WNW) 13:47:32 437.525
HORYU 2 23 Nov 13:41:30 13:44:42 20° 64° (ENE) 13:47:56 437.375
SO-50 23 Nov 13:47:58 13:52:43 53° 241° (WSW) 13:57:28 436.795
BEESAT 23 Nov 13:48:23 13:53:10 62° 101° (ESE) 13:57:54 436.000
AUBIESAT-1 23 Nov 13:54:46 13:59:43 84° 108° (ESE) 14:04:35 437.475
M-CUBED/EXP-1 PRIME 23 Nov 13:57:55 14:02:53 85° 290° (WNW) 14:07:47 437.505
ITAMSAT 1 23 Nov 14:17:24 14:22:26 48° 260° (W) 14:27:30 435.822/435.867
STARS 23 Nov 14:27:21 14:30:50 23° 94° (E) 14:34:19 437.465
Gurwin Techsat 1B 23 Nov 14:32:36 14:37:52 63° 259° (WSW) 14:43:09 435.225
YUBILEINY 23 Nov 14:37:56 14:46:38 75° 266° (W) 14:55:16 435.215
ITUPSAT 1 23 Nov 14:42:31 14:47:02 41° 291° (WNW) 14:51:32 437.325
JAS-2 23 Nov 14:53:26 14:58:22 19° 52° (NE) 15:03:20 435.910
SWISSCUBE 23 Nov 14:54:54 14:59:03 30° 294° (WNW) 15:03:11 437.505
RS-15 23 Nov 14:55:04 15:01:35 18° 98° (E) 15:08:02 29.354- 29.394
KKS-1 23 Nov 15:01:19 15:05:46 77° 103° (ESE) 15:10:12 437.445
VERMONT LUNAR 23 Nov 15:04:09 15:05:12 11° 148° (SSE) 15:06:14 437.305
O/OREOS (USA 219) 23 Nov 15:12:06 15:15:10 18° 52° (NE) 15:18:13 437.305
HORYU 2 23 Nov 15:16:52 15:21:05 44° 261° (W) 15:25:21 437.375
BEESAT 23 Nov 15:27:27 15:30:32 17° 299° (WNW) 15:33:35 436.000
AO-7 23 Nov 15:27:59 15:36:16 82° 69° (ENE) 15:44:37 29.400- 29.500
AUBIESAT-1 23 Nov 15:31:15 15:34:03 15° 306° (NW) 15:36:51 437.475
M-CUBED/EXP-1 PRIME 23 Nov 15:34:47 15:37:11 14° 307° (NW) 15:39:35 437.505
STARS 23 Nov 16:03:24 16:07:25 36° 291° (WNW) 16:11:25 437.465
MaSat-1 23 Nov 16:08:01 16:11:04 86° 118° (ESE) 16:13:50 437.345
PHONESAT 2.4 23 Nov 16:17:51 16:20:47 22° 157° (SSE) 16:23:43 2401.200-2431.200
JAS-2 23 Nov 16:34:32 16:42:05 75° 72° (ENE) 16:49:58 435.910
Cubesat XI-IV 23 Nov 16:35:59 16:40:04 23° 62° (ENE) 16:44:08 437.490
YUBILEINY 23 Nov 16:37:32 16:41:48 15° 287° (WNW) 16:46:04 435.215
VERMONT LUNAR 23 Nov 16:39:45 16:43:01 32° 164° (SSE) 16:46:18 437.305
KKS-1 23 Nov 16:39:55 16:41:49 13° 300° (WNW) 16:43:42 437.445
O/OREOS (USA 219) 23 Nov 16:50:33 16:54:57 57° 251° (WSW) 16:59:19 437.305
RS-15 23 Nov 17:01:01 17:11:55 77° 120° (ESE) 17:22:51 29.354- 29.394
CUTE-I 23 Nov 17:16:52 17:21:59 48° 69° (ENE) 17:27:07 437.470
MOZHAYETS 4 23 Nov 17:22:34 17:27:14 69° 102° (ESE) 17:31:52
AO-7 23 Nov 17:23:50 17:29:56 22° 269° (W) 17:36:07 29.400- 29.500
PHONESAT 2.4 23 Nov 17:55:35 17:59:09 45° 173° (S) 18:02:43 2401.200-2431.200
PRISM 23 Nov 17:57:47 18:01:32 29° 96° (E) 18:05:14 437.425
Cubesat XI-IV 23 Nov 18:14:30 18:19:46 55° 259° (W) 18:25:03 437.490
VERMONT LUNAR 23 Nov 18:17:41 18:21:12 48° 181° (S) 18:24:43 437.305
JAS-2 23 Nov 18:21:44 18:27:45 25° 271° (W) 18:33:59 435.910
STRAND 1 23 Nov 18:23:14 18:27:13 22° 93° (E) 18:31:10 437.568
GONETS M04 23 Nov 18:31:25 18:38:51 29° 65° (ENE) 18:46:11
HO-68 23 Nov 18:49:47 18:55:14 24° 55° (NE) 19:00:42 435.675
CUBESAT XI-V 23 Nov 18:56:23 19:00:56 48° 99° (E) 19:05:25 437.345
CUTE-I 23 Nov 18:57:59 19:02:17 24° 267° (W) 19:06:36 437.470
CANX-2 23 Nov 19:01:00 19:01:56 11° 60° (ENE) 19:02:53 2200.000
MOZHAYETS 4 23 Nov 19:01:19 19:03:54 15° 299° (WNW) 19:06:29
RS-15 23 Nov 19:15:15 19:25:18 40° 326° (NW) 19:35:31 29.354- 29.394
PCSat 23 Nov 19:24:37 19:28:23 20° 106° (ESE) 19:32:11 145.827
PRISM 23 Nov 19:33:26 19:37:00 26° 293° (WNW) 19:40:32 437.425
CUTE 1.7 & AOD 2 23 Nov 19:33:27 19:36:39 21° 66° (ENE) 19:39:51 437.475
PHONESAT 2.4 23 Nov 19:34:09 19:37:41 41° 190° (S) 19:41:12 2401.200-2431.200
GOMX 1 23 Nov 19:43:39 19:47:18 22° 66° (ENE) 19:50:46 467.674
UKube-1 23 Nov 19:50:10 19:51:43 12° 59° (ENE) 19:53:16 .
VERMONT LUNAR 23 Nov 19:56:09 19:59:22 30° 198° (SSW) 20:02:35 437.305
BRITE-PL 23 Nov 19:57:51 20:02:34 41° 71° (ENE) 20:06:58 437.365/2234.400
BEESAT 2 23 Nov 19:59:25 20:01:02 12° 108° (ESE) 20:02:39 435.950
STRAND 1 23 Nov 20:01:44 20:06:38 47° 290° (WNW) 20:11:30 437.568
Oscar 11 23 Nov 20:02:13 20:04:50 16° 63° (ENE) 20:07:27 145.826/435.025
SEEDS 23 Nov 20:08:55 20:12:52 42° 71° (ENE) 20:16:51 437.485
CINEMA 3 23 Nov 20:09:38 20:12:33 18° 65° (ENE) 20:15:25 145.822/145.860
DX 1 23 Nov 20:20:49 20:24:20 24° 65° (ENE) 20:27:51 434.975-435.025
AIST 2 23 Nov 20:23:01 20:24:01 11° 107° (ESE) 20:25:01 435.215
AIST 1 23 Nov 20:27:31 20:31:54 78° 279° (W) 20:36:21
GONETS M04 23 Nov 20:27:40 20:36:26 69° 267° (W) 20:45:06
AAUSAT CUBESAT 2 23 Nov 20:30:53 20:34:56 56° 73° (ENE) 20:39:02 437.432
CANX-2 23 Nov 20:33:01 20:37:14 83° 257° (WSW) 20:41:29 2200.000
CUBESAT XI-V 23 Nov 20:34:39 20:38:02 20° 296° (WNW) 20:41:23 437.345
HO-68 23 Nov 20:35:02 20:42:13 77° 255° (WSW) 20:49:28 435.675
VELOX 1 23 Nov 20:40:54 20:43:02 13° 60° (ENE) 20:45:11 145.980
COMPASS 1 23 Nov 20:44:15 20:48:25 89° 77° (ENE) 20:52:38 437.405
ZACube-1 23 Nov 20:47:27 20:50:33 20° 66° (ENE) 20:53:37 437.345
DELFI C3 23 Nov 20:49:20 20:53:06 38° 71° (ENE) 20:56:55 145.870
DOVE 4 23 Nov 20:50:06 20:54:46 73° 75° (ENE) 20:59:10 437.250
HUMSAT D 23 Nov 20:51:03 20:53:08 14° 62° (ENE) 20:55:13 437.325/437.525
50 SAT 23 Nov 20:57:13 20:59:04 13° 62° (ENE) 21:00:55 437.505
AISAT 23 Nov 21:03:58 21:07:27 23° 65° (ENE) 21:10:56 437.250
PCSat 23 Nov 21:05:54 21:11:16 65° 304° (NW) 21:16:42 145.827
CUTE 1.7 & AOD 2 23 Nov 21:08:28 21:12:22 36° 263° (W) 21:16:18 437.475
PHONESAT 2.4 23 Nov 21:13:25 21:15:59 18° 207° (SSW) 21:18:31 2401.200-2431.200
GOMX 1 23 Nov 21:20:36 21:25:13 43° 261° (W) 21:29:34 467.674
BEESAT 3 23 Nov 21:21:15 21:25:22 88° 304° (NW) 21:29:34 437.485
FUNcube-1 23 Nov 21:22:08 21:26:09 45° 72° (ENE) 21:30:08 145.935
UKube-1 23 Nov 21:22:54 21:27:15 81° 257° (WSW) 21:31:39 .
CUBEBUG 1 23 Nov 21:27:36 21:30:03 15° 61° (ENE) 21:32:30 437.445
RS-15 23 Nov 21:33:08 21:41:46 25° 0° (N) 21:50:35 29.354- 29.394
BEESAT 2 23 Nov 21:34:36 21:38:43 73° 306° (NW) 21:42:56 435.950
CUBEBUG 2 23 Nov 21:36:03 21:40:22 88° 76° (ENE) 21:44:35 437.445
Oscar 11 23 Nov 21:36:22 21:40:35 54° 260° (W) 21:44:50 145.826/435.025
BRITE-PL 23 Nov 21:37:06 21:41:11 24° 265° (W) 21:45:03 437.365/2234.400
UWE-3 23 Nov 21:41:36 21:45:53 87° 76° (ENE) 21:50:05 435.000/436.395/437.385
CINEMA 3 23 Nov 21:45:11 21:49:28 47° 261° (W) 21:53:37 145.822/145.860
SEEDS 23 Nov 21:46:06 21:48:55 18° 268° (W) 21:51:46 437.485
ANTELSAT 23 Nov 21:54:14 21:56:16 13° 90° (E) 21:58:18 437.575/2403.000
DX 1 23 Nov 21:56:23 22:00:24 35° 262° (W) 22:04:27 434.975-435.025
AIST 2 23 Nov 21:57:43 22:01:58 83° 305° (NW) 22:06:17 435.215
ESTCUBE 1 23 Nov 22:04:36 22:08:43 35° 69° (ENE) 22:12:51 437.505/2401.250
POPSAT HIP 1 23 Nov 22:08:44 22:10:09 11° 89° (E) 22:11:34 437.405
AAUSAT CUBESAT 2 23 Nov 22:08:58 22:11:00 13° 270° (W) 22:13:01 437.432
VELOX 1 23 Nov 22:14:35 22:19:03 73° 257° (WSW) 22:23:33 145.980
ZACube-1 23 Nov 22:22:45 22:26:42 38° 262° (W) 22:30:38 437.345
HUMSAT D 23 Nov 22:24:24 22:28:30 59° 259° (W) 22:32:35 437.325/437.525
DELFI C3 23 Nov 22:25:43 22:28:34 18° 268° (W) 22:31:28 145.870
HO-68 23 Nov 22:27:39 22:31:03 14° 273° (W) 22:34:28 435.675
GONETS M04 23 Nov 22:27:48 22:31:27 13° 288° (WNW) 22:35:05
50 SAT 23 Nov 22:29:55 22:33:55 61° 259° (W) 22:37:55 437.505
DOVE 4 23 Nov 22:31:21 22:32:58 12° 270° (W) 22:34:33 437.250
POLYITAN 1 23 Nov 22:38:59 22:42:30 25° 95° (E) 22:46:01 437.675
AISAT 23 Nov 22:39:39 22:43:52 39° 262° (W) 22:48:05 437.250
QB50P2 23 Nov 22:41:57 22:45:35 27° 95° (E) 22:49:12 145.880/145.840
TIGRISAT 23 Nov 22:48:26 22:52:40 46° 99° (E) 22:56:59 435.000
DUCHIFAT 1 23 Nov 22:49:32 22:53:20 32° 97° (E) 22:57:06 145.980
PCSat 23 Nov 22:52:45 22:55:47 15° 326° (NW) 22:58:50 145.827
TISAT 1 23 Nov 22:57:59 23:01:46 31° 68° (ENE) 23:05:33 437.305
FUNcube-1 23 Nov 23:00:03 23:02:45 17° 268° (W) 23:05:26 145.935
SPROUT 23 Nov 23:00:09 23:03:52 29° 68° (ENE) 23:07:36 437.525
UNISAT 6 23 Nov 23:00:36 23:04:59 63° 101° (ESE) 23:09:27 437.425
CUBEBUG 1 23 Nov 23:01:30 23:05:55 65° 259° (WSW) 23:10:22 437.445
BEESAT 3 23 Nov 23:01:51 23:04:14 15° 324° (NW) 23:06:38 437.485
NANOSAT C BR1 23 Nov 23:08:18 23:12:26 52° 100° (E) 23:16:33 145.865
AUBIESAT-1 23 Nov 23:12:56 23:15:33 17° 55° (NE) 23:18:19 437.475
BEESAT 2 23 Nov 23:15:49 23:17:47 13° 326° (NW) 23:19:47 435.950
M-CUBED/EXP-1 PRIME 23 Nov 23:16:03 23:18:58 19° 56° (ENE) 23:22:03 437.505
QB50P1 23 Nov 23:17:48 23:22:02 67° 102° (ESE) 23:26:13 145.935-145.965
BEESAT 23 Nov 23:22:38 23:24:08 11° 57° (ENE) 23:25:38 436.000
ANTELSAT 23 Nov 23:29:06 23:33:29 66° 286° (WNW) 23:37:57 437.575/2403.000
AIST 2 23 Nov 23:38:51 23:41:17 15° 325° (NW) 23:43:45 435.215
BUGSAT 1 23 Nov 23:41:26 23:45:34 81° 285° (WNW) 23:49:36 437.445
ESTCUBE 1 23 Nov 23:41:53 23:45:39 25° 266° (W) 23:49:26 437.505/2401.250
POPSAT HIP 1 23 Nov 23:42:19 23:46:31 66° 286° (WNW) 23:50:41 437.405
CUSAT 1 23 Nov 23:43:12 23:47:11 36° 77° (ENE) 23:52:22 437.405
RS-15 23 Nov 23:47:58 23:58:15 40° 34° (NE) 00:08:52 29.354- 29.394
DANDE 23 Nov 23:58:19 00:02:14 41° 78° (ENE) 00:07:25 436.750
ISS 24 Nov 00:09:43 00:12:32 26° 138° (SE) 00:15:21 145.825
ITUPSAT 1 24 Nov 00:13:30 00:17:46 32° 67° (ENE) 00:22:03 437.325
POLYITAN 1 24 Nov 00:14:46 00:18:28 30° 292° (WNW) 00:22:09 437.675
QB50P2 24 Nov 00:17:51 00:21:28 28° 292° (WNW) 00:25:05 145.880/145.840
SWISSCUBE 24 Nov 00:25:03 00:29:37 45° 70° (ENE) 00:34:12 437.505
DUCHIFAT 1 24 Nov 00:25:41 00:29:05 24° 294° (WNW) 00:32:27 145.980
TIGRISAT 24 Nov 00:26:02 00:29:08 19° 296° (WNW) 00:32:16 435.000
TISAT 1 24 Nov 00:34:06 00:37:38 25° 265° (W) 00:41:10 437.305
SPROUT 24 Nov 00:36:13 00:39:56 28° 265° (W) 00:43:39 437.525
UNISAT 6 24 Nov 00:38:52 00:41:19 15° 298° (WNW) 00:43:48 437.425
NANOSAT C BR1 24 Nov 00:45:21 00:47:56 16° 297° (WNW) 00:50:30 145.865
AUBIESAT-1 24 Nov 00:46:07 00:50:02 57° 255° (WSW) 00:54:23 437.475
M-CUBED/EXP-1 PRIME 24 Nov 00:49:47 00:53:37 47° 256° (WSW) 00:57:51 437.505
QB50P1 24 Nov 00:55:28 00:57:24 13° 299° (WNW) 00:59:19 145.935-145.965
BEESAT 24 Nov 00:56:24 01:01:11 84° 75° (ENE) 01:06:01 436.000
STARS 24 Nov 01:26:16 01:29:53 26° 66° (ENE) 01:33:31 437.465
CUSAT 1 24 Nov 01:26:38 01:30:16 25° 265° (W) 01:34:47 437.405
Oscar 19 24 Nov 01:40:41 01:45:43 50° 100° (E) 01:50:43 437.125/150
DANDE 24 Nov 01:42:28 01:45:40 20° 266° (W) 01:49:32 436.750
YUBILEINY 24 Nov 01:45:48 01:52:46 27° 81° (E) 01:59:43 435.215
ISS 24 Nov 01:45:50 01:49:02 48° 335° (NNW) 01:52:15 145.825
MaSat-1 24 Nov 01:46:02 01:47:58 23° 248° (WSW) 01:49:57 437.345
ITUPSAT 1 24 Nov 01:51:25 01:55:38 30° 264° (W) 01:59:53 437.325
RS-15 24 Nov 02:00:33 02:11:45 79° 240° (WSW) 02:23:27 29.354- 29.394
KKS-1 24 Nov 02:00:59 02:05:27 83° 75° (ENE) 02:09:55 437.445
SWISSCUBE 24 Nov 02:04:02 02:07:41 21° 267° (W) 02:11:22 437.505
ITAMSAT 1 24 Nov 02:28:35 02:33:40 53° 100° (E) 02:38:42 435.822/435.867
BEESAT 24 Nov 02:38:16 02:39:40 11° 272° (W) 02:41:04 436.000
Gurwin Techsat 1B 24 Nov 02:47:19 02:52:27 47° 99° (E) 02:57:32 435.225
STARS 24 Nov 03:02:16 03:06:15 33° 263° (W) 03:10:14 437.465
HORYU 2 24 Nov 03:07:02 03:11:02 31° 97° (E) 03:15:01 437.375
Oscar 19 24 Nov 03:20:44 03:24:44 23° 297° (WNW) 03:28:43 437.125/150
ISS 24 Nov 03:23:34 03:26:14 22° 355° (N) 03:28:53 145.825
AO-7 24 Nov 03:28:49 03:35:20 24° 92° (E) 03:41:47 29.400- 29.500
YUBILEINY 24 Nov 03:40:02 03:48:48 69° 281° (WNW) 03:57:35 435.215
BEESAT 3 24 Nov 04:02:52 04:05:22 15° 36° (NE) 04:07:51 437.485
SO-50 24 Nov 04:04:19 04:08:24 35° 116° (ESE) 04:12:37 436.795
ITAMSAT 1 24 Nov 04:08:53 04:12:47 22° 298° (WNW) 04:16:40 435.822/435.867
PCSat 24 Nov 04:09:29 04:14:01 26° 44° (NE) 04:18:31 145.827
RS-15 24 Nov 04:15:04 04:22:19 20° 261° (W) 04:29:46 29.354- 29.394
BEESAT 2 24 Nov 04:16:13 04:19:06 18° 39° (NE) 04:21:58 435.950
MOZHAYETS 4 24 Nov 04:25:58 04:30:33 76° 75° (ENE) 04:35:11
Gurwin Techsat 1B 24 Nov 04:27:51 04:32:08 25° 297° (WNW) 04:36:23 435.225
AIST 2 24 Nov 04:40:51 04:43:41 17° 37° (NE) 04:46:31 435.215
HORYU 2 24 Nov 04:43:49 04:47:38 28° 293° (WNW) 04:51:27 437.375
PRISM 24 Nov 04:50:22 04:53:57 28° 67° (ENE) 04:57:35 437.425
ISS 24 Nov 05:00:40 05:03:35 28° 15° (NNE) 05:06:30 145.825
AO-7 24 Nov 05:20:31 05:28:53 78° 292° (WNW) 05:37:14 29.400- 29.500
O/OREOS (USA 219) 24 Nov 05:27:33 05:29:39 13° 98° (E) 05:31:46 437.305
JAS-2 24 Nov 05:28:41 05:35:53 60° 99° (E) 05:42:12 435.910
CUTE-I 24 Nov 05:33:43 05:37:00 16° 90° (E) 05:40:15 437.470
BEESAT 3 24 Nov 05:39:59 05:44:13 89° 236° (SW) 05:48:23 437.485
STRAND 1 24 Nov 05:40:21 05:45:05 38° 68° (ENE) 05:49:50 437.568
YUBILEINY 24 Nov 05:42:42 05:47:30 15° 305° (NW) 05:52:19 435.215
SO-50 24 Nov 05:44:50 05:48:58 33° 315° (NW) 05:53:13 436.795
PCSat 24 Nov 05:52:28 05:57:48 59° 244° (WSW) 06:03:06 145.827
BEESAT 2 24 Nov 05:53:40 05:57:53 72° 238° (WSW) 06:02:02 435.950
CUBESAT XI-V 24 Nov 06:01:11 06:05:48 56° 73° (ENE) 06:10:26 437.345
MOZHAYETS 4 24 Nov 06:06:46 06:08:20 12° 272° (W) 06:09:55
AIST 2 24 Nov 06:18:33 06:22:53 81° 237° (WSW) 06:27:08 435.215
PRISM 24 Nov 06:25:52 06:29:27 27° 264° (W) 06:33:06 437.425
Cubesat XI-IV 24 Nov 06:30:15 06:35:29 53° 100° (E) 06:40:39 437.490
AIST 1 24 Nov 06:33:44 06:37:38 30° 74° (ENE) 06:41:28
ISS 24 Nov 06:37:11 06:40:29 73° 214° (SW) 06:43:46 145.825
O/OREOS (USA 219) 24 Nov 07:04:02 07:08:29 65° 296° (WNW) 07:12:57 437.305
CUTE-I 24 Nov 07:12:16 07:17:35 69° 287° (WNW) 07:22:50 437.470
JAS-2 24 Nov 07:14:18 07:20:22 29° 301° (WNW) 07:25:55 435.910
AO-7 24 Nov 07:14:46 07:20:24 21° 313° (NW) 07:26:03 29.400- 29.500
STRAND 1 24 Nov 07:19:56 07:24:20 28° 265° (W) 07:28:46 437.568
GONETS M04 24 Nov 07:35:11 07:42:27 30° 82° (E) 07:49:45
CUBESAT XI-V 24 Nov 07:40:36 07:43:36 17° 270° (W) 07:46:36 437.345
HO-68 24 Nov 08:02:34 08:07:21 19° 90° (E) 08:12:06 435.675
Cubesat XI-IV 24 Nov 08:11:07 08:15:12 23° 298° (WNW) 08:19:17 437.490
AIST 1 24 Nov 08:11:35 08:15:10 25° 272° (W) 08:18:43
CANX-2 24 Nov 08:18:25 08:21:02 16° 91° (E) 08:23:39 2200.000
COMPASS 1 24 Nov 08:28:33 08:30:40 14° 90° (E) 08:32:47 437.405
DOVE 4 24 Nov 08:49:05 08:51:33 15° 92° (E) 08:54:02 437.250
CUTE 1.7 & AOD 2 24 Nov 08:52:23 08:56:16 33° 96° (E) 09:00:08 437.475
CUTE-I 24 Nov 08:55:28 08:56:40 11° 306° (NW) 08:57:51 437.470
ANTELSAT 24 Nov 08:55:40 08:57:57 14° 62° (ENE) 09:00:15 437.575/2403.000
POPSAT HIP 1 24 Nov 09:03:54 09:05:39 12° 61° (ENE) 09:07:23 437.405
UKube-1 24 Nov 09:10:49 09:13:21 15° 91° (E) 09:15:53 .
GOMX 1 24 Nov 09:20:48 09:24:47 44° 99° (E) 09:28:49 467.674
Oscar 11 24 Nov 09:22:48 09:26:21 24° 94° (E) 09:29:52 145.826/435.025
CUBEBUG 2 24 Nov 09:27:00 09:29:35 16° 92° (E) 09:32:10 437.445
SEEDS 24 Nov 09:27:43 09:32:00 70° 102° (ESE) 09:36:15 437.485
GONETS M04 24 Nov 09:29:55 09:38:37 63° 283° (WNW) 09:47:26
UWE-3 24 Nov 09:31:28 09:33:57 15° 91° (E) 09:36:28 435.000/436.395/437.385
POLYITAN 1 24 Nov 09:34:13 09:37:41 25° 67° (ENE) 09:41:10 437.675
QB50P2 24 Nov 09:36:56 09:40:30 26° 67° (ENE) 09:44:04 145.880/145.840
CINEMA 3 24 Nov 09:38:39 09:42:26 32° 97° (E) 09:46:17 145.822/145.860
BRITE-PL 24 Nov 09:39:23 09:43:33 82° 284° (WNW) 09:47:42 437.365/2234.400
DX 1 24 Nov 09:43:17 09:47:15 34° 97° (E) 09:51:11 434.975-435.025
DUCHIFAT 1 24 Nov 09:44:05 09:47:49 30° 68° (ENE) 09:51:33 145.980
AAUSAT CUBESAT 2 24 Nov 09:48:36 09:52:51 89° 103° (ESE) 09:57:05 437.432
HO-68 24 Nov 09:48:40 09:55:54 84° 288° (WNW) 10:03:03 435.675
TIGRISAT 24 Nov 09:49:06 09:53:12 48° 72° (ENE) 09:57:18 435.000
CANX-2 24 Nov 09:53:07 09:57:16 50° 288° (WNW) 10:01:25 2200.000
UNISAT 6 24 Nov 10:01:30 10:05:44 67° 74° (ENE) 10:09:59 437.425
COMPASS 1 24 Nov 10:02:36 10:06:46 57° 286° (WNW) 10:10:56 437.405
NANOSAT C BR1 24 Nov 10:02:44 10:06:49 48° 72° (ENE) 10:10:55 145.865
DELFI C3 24 Nov 10:03:44 10:07:49 56° 100° (E) 10:11:53 145.870
VELOX 1 24 Nov 10:05:03 10:08:13 19° 93° (E) 10:11:22 145.980
HUMSAT D 24 Nov 10:08:23 10:11:26 20° 93° (E) 10:14:29 437.325/437.525
ZACube-1 24 Nov 10:09:56 10:13:46 33° 97° (E) 10:17:38 437.345
50 SAT 24 Nov 10:10:32 10:13:11 17° 92° (E) 10:15:51 437.505
QB50P1 24 Nov 10:12:13 10:16:26 61° 74° (ENE) 10:20:38 145.935-145.965
DOVE 4 24 Nov 10:25:37 10:29:37 47° 288° (WNW) 10:33:40 437.250
CUTE 1.7 & AOD 2 24 Nov 10:28:36 10:32:03 24° 293° (WNW) 10:35:31 437.475
